Location: Biharia
(46.4333°N, 22.8000°E)
Time: 10:59:04
(UTC+00:00)

Spot 2 - Pass Details

Date: 16 October 2021
Orbit: 570 x 772 km, 98.7° (Epoch: 02 December)

Event Time Altitude Azimuth Distance (km) Brightness Sun altitude
Rises 16:33:22 0° 150° (SSE) 2,765 7.1 -9.9°
Reaches altitude 10° 16:35:31 10° 145° (SE) 1,879 6.2 -10.3°
Maximum altitude 16:39:25 49° 70° (ENE) 757 4.1 -10.9°
Drops below altitude 10° 16:43:29 10° 356° (N) 1,956 6.7 -11.6°
Sets 16:45:45 0° 351° (N) 2,892 7.6 -12.0°
